FENGYUN 1C DEB

Satellite information

Favourite Embed

Satellite Type and Status

DEBRISIN ORBIT

Key statistics

Satellite FENGYUN 1C DEB at a glance.

Uptime

9495

Days in orbit

Revolutions

≈ 14.5

Per day

Orbit

SSO

Sun Synchronous Orbit

Inclination

98.7

Latest

Satellite identification and parameters

Extended collection of information and parameters for FENGYUN 1C DEB.

Object identification

Identified? True

Debris? True

Object name: FENGYUN 1C DEB

International designator: 1999-025HC

Object number (NORAD): 29906

Object ID (CCSDS): 29906

Country: PEOPLES REPUBLIC OF CHINA (PRC)

Current information (Y/N): Y

RCS size: SMALL

Orbital parameters

Period: 99.619 minutes

Inclination: 98.7014 deg

SMA: 7118.513 km

Apoapsis: 768.971 km

Periapsis: 711.785 km

RAAN: 225.0038 deg

Eccentricy: 0.0040167

Argument of periapsis: 90.6211 deg

Mean anomaly: 269.9582 deg

Mean motion: 14.45502572 rev/day

Mean motion (dot): 0.00007751 rev/day2

B* drag term: 0.0021876 1/REarth

Two-line elements (TLE)

Creation date: May 8, 2025, 3:01 a.m.

Reference frame: TEME

Reference center: EARTH

Epoch: May 7, 2025, 7:43 p.m. UTC

TLE line 0: 0 FENGYUN 1C DEB

TLE line 1: 1 29906U 99025HC 25127.82163358 .00007751 00000-0 21876-2 0 9990

TLE line 2: 2 29906 98.7014 225.0038 0040167 90.6211 269.9582 14.45502572949912

Live tracking on map

Real-time ground track for satellite FENGYUN 1C DEB.

In-orbit conjunctions

A list of the most updated potential collisions computed for object FENGYUN 1C DEB.

Target Orbit TCA Probability of collision Miss distance Type
EOLE 1 (CAS-A) LEO 2025-02-13 09:49:11 0.0001482785 780.0 (m) PAYLOAD
FENGYUN 1C DEB SSO 2024-06-28 08:16:30 0.0002624716 29.0 (m) DEBRIS

Associated space launch

Chinese polar orbiting meteorological satellite

FENGYUN 1C DEB was lifted into orbit during the mission ‘Long March 4B | Feng Yun 1C’, on board a Long March 4B space rocket.

The launch took place on May 10, 1999, 1:33 a.m. from Launch Complex 7.

For more information about the launch, click the button.

Launch to space Long March 4B | Feng Yun 1C
Long March 4B | Feng Yun 1C

Agency: N/A

Status: Launch Successful

Launch date: May 10, 1999, 1:33 a.m. UTC

Rocket: Long March 4B

Launch pad: Launch Complex 7

Location: Taiyuan Satellite Launch Center, People's Republic of China

...

Latest news about this satellite

There are no fresh news available about this satellite. Check back as we update our databases every day.


Newsletter sign-up

Weekly statistics, charts and insights to help you stay on top of the space industry.